Location: Klein M�hlingen
(51.9472°N, 11.7453°E)
Time: 12:13:38
(UTC+00:00)

ISS - Pass Details

Date: 04 October 2021
Orbit: 417 x 423 km, 51.6° (Epoch: 28 October)

Event Time Altitude Azimuth Distance (km) Brightness Sun altitude
Rises 17:31:17 0° 283° (WNW) 2,366 2.2 -8.2°
Reaches altitude 10° 17:33:34 10° 271° (W) 1,501 0.8 -8.6°
Maximum altitude 17:36:29 28° 211° (SSW) 825 -2.0 -9.0°
Drops below altitude 10° 17:39:24 10° 150° (SSE) 1,497 -1.3 -9.5°
Enters shadow 17:40:30 - 143° (SE) 1,901 -0.8 -9.6°
